Home > Weather > Baton Rouge > Past weeks

Flag for USA Past Weather in Baton Rouge, Louisiana, USA — Yesterday and Last 2 Weeks

Now
86 °F

Passing clouds.


Feels Like: 96 °F
Forecast: 73 / 90 °F
Wind: 7 mph from Southwest

Location: Baton Rouge Metropolitan - Ryan Field

Current Time: Jul 28, 2016 at 11:28:53 AM

Latest Report: Jul 28, 2016 at 10:53 AM


Visibility: 10 mi

Pressure: 30.04 "Hg

Humidity: 72%

Dew Point: 76 °F

Location of Baton RougeLocation

Past Weather in Baton Rouge — Graph

°F

Baton Rouge Temperature Yesterday

Maximum temperature yesterday: 83 °F (at 3:53 PM)
Minimum temperature yesterday: 75 °F (at 7:53 AM)
Average temperature yesterday: 78 °F

High & Low Weather Summary for the Past Weeks

 TemperatureHumidityPressure
High95 °F (Jul 13, 2:53 PM)94% (Jul 13, 10:53 PM)30.22 "Hg (Jul 13, 10:53 PM)
Low73 °F (Jul 14, 12:59 PM)46% (Jul 16, 4:53 PM)29.89 "Hg (Jul 26, 4:53 PM)
Average81 °F78%30.04 "Hg
* Reported Jul 13 11:53 AM — Jul 28 9:53 AM, Baton Rouge, Weather by CustomWeather, © 2016

Note: Actual official high and low records may vary slightly from our data, if they occured in-between our weather recording intervals... More about our weather records

Advertising

Baton Rouge Weather History for the Previous 24 Hours

Scroll right to see more
 ConditionsComfort  
Time TempWeatherWind HumidityBarometerVisibility
9:53 AM
Thu, Jul 28
85 °FScattered clouds.6 mph72%30.04 "Hg10 mi
8:53 AM85 °FPartly sunny.10 mph77%30.03 "Hg10 mi
7:53 AM80 °FPassing clouds.No wind85%30.03 "Hg10 mi
6:53 AM76 °FClear.No wind91%30.03 "Hg10 mi
5:53 AM75 °FClear.5 mph90%30.02 "Hg10 mi
4:53 AM74 °FClear.No wind91%30.02 "Hg10 mi
3:53 AM73 °FClear.No wind94%30.01 "Hg10 mi
2:53 AM74 °FClear.No wind91%30.01 "Hg10 mi
1:53 AM75 °FClear.3 mph90%30.01 "Hg10 mi
12:53 AM75 °FClear.No wind90%30.02 "Hg10 mi
11:53 PM
Wed, Jul 27
77 °FClear.7 mph85%30.01 "Hg10 mi
10:53 PM77 °FClear.6 mph85%30.01 "Hg10 mi
9:53 PM77 °FClear.3 mph88%30.01 "Hg10 mi
8:53 PM78 °FSunny.3 mph82%29.99 "Hg10 mi
7:53 PM79 °FSunny.6 mph79%29.97 "Hg10 mi
6:53 PM81 °FScattered clouds.7 mph72%29.98 "Hg10 mi
5:53 PM82 °FPartly sunny.7 mph70%30.00 "Hg10 mi
4:53 PM83 °FSunny.10 mph65%30.00 "Hg10 mi
3:53 PM83 °FScattered clouds.8 mph72%30.02 "Hg10 mi
2:53 PM80 °FScattered clouds.9 mph74%30.03 "Hg10 mi
2:04 PM78 °FLight rain. Overcast.10 mph87%30.05 "Hg10 mi
2:00 PM78 °FRain. Fog.12 mph87%30.05 "Hg5 mi
12:55 PM75 °FRain. Fog.10 mph90%30.06 "Hg5 mi
11:53 AM79 °FLight rain. Mostly cloudy.13 mph82%30.06 "Hg10 mi
Weather by CustomWeather, © 2016

See weather overviewHow to use our weather pages